CES261 ZSWZ-LEMD

Flight info

Callsign CES261
Flight time N/A
Altitude 35100
Route REMIM9B REMIM B221 AND G204 JTN/K0926S1040 W116 PK G330 PIMOL A593 DALIM W157 TUMLO/K0913S1100 W157 BEKDO/K0913S1070 W157 VYK G212 SOTMU/K0913S1100 B339 POLHO Y345 UDA A575 DARNO/K0898F360 A575 KZL/K0898F380 A575 KD A308 OSNAB R362 KZ A575 UNKIS P982 LOBVI/K0906F400 P982 ANDAT M60 UMODI L870 RANVA/N0491F400 L870 RESMO DCT BEDOS DCT DEMIR DCT BEDUM DCT WOODY DCT CIV DCT MEDIL/N0491F410 DCT KOVIN/N0492F330 DCT DUCRA UM728 RESMI UN857 DISAK/N0490F410 DCT ARKIP DCT ARNAV DCT LMG DCT UVELI DCT OSMOB DCT VAVIX DCT NETUK N857 GARVU/N0489F390 N857 BANEV
Aircraft A359/H-SDE2E3GHIJ3J4J5LM1ORWXY/LB1D1

Departure

Time 2026-05-06 16:48
Airport Wenzhou Longwan International Airport (ZSWZ)

Arrival

Time N/A
Airport Adolfo Suárez Madrid–Barajas Airport (LEMD)
Time Latitude Longitude Altitude Speed Heading
2026-05-06 16:34 27.90541 120.84557 21 ft 0 kts 297°
2026-05-06 16:37 27.90536 120.84567 24 ft 4 kts 298°
2026-05-06 16:37 27.90524 120.84593 24 ft 2 kts 298°
2026-05-06 16:37 27.90510 120.84613 24 ft 4 kts 349°
2026-05-06 16:37 27.90488 120.84606 21 ft 4 kts 31°
2026-05-06 16:38 27.90479 120.84600 21 ft 0 kts 28°
2026-05-06 16:41 27.90480 120.84601 21 ft 1 kts 28°
2026-05-06 16:41 27.90486 120.84604 24 ft 2 kts 28°
2026-05-06 16:41 27.90517 120.84624 24 ft 9 kts 28°
2026-05-06 16:42 27.90586 120.84665 26 ft 11 kts 28°
2026-05-06 16:42 27.90610 120.84742 21 ft 11 kts 78°
2026-05-06 16:42 27.90672 120.84807 26 ft 15 kts 29°
2026-05-06 16:42 27.90778 120.84873 24 ft 19 kts 28°
2026-05-06 16:43 27.90900 120.84947 21 ft 16 kts 28°
2026-05-06 16:43 27.90970 120.84989 25 ft 14 kts 28°
2026-05-06 16:43 27.91079 120.85055 25 ft 21 kts 28°
2026-05-06 16:43 27.91201 120.85128 24 ft 15 kts 28°
2026-05-06 16:44 27.91303 120.85190 21 ft 18 kts 28°
2026-05-06 16:44 27.91426 120.85264 25 ft 22 kts 28°
2026-05-06 16:44 27.91550 120.85339 26 ft 17 kts 28°
2026-05-06 16:44 27.91676 120.85415 21 ft 23 kts 28°
2026-05-06 16:45 27.91821 120.85503 23 ft 25 kts 28°
2026-05-06 16:45 27.91919 120.85562 26 ft 8 kts 28°
2026-05-06 16:45 27.91993 120.85607 21 ft 16 kts 28°
2026-05-06 16:45 27.92104 120.85674 23 ft 19 kts 28°
2026-05-06 16:46 27.92184 120.85724 26 ft 13 kts 34°
2026-05-06 16:46 27.92196 120.85802 25 ft 12 kts 111°
2026-05-06 16:46 27.92175 120.85848 22 ft 1 kts 118°
2026-05-06 16:46 27.92157 120.85885 21 ft 9 kts 118°
2026-05-06 16:47 27.92110 120.85952 26 ft 10 kts 163°
2026-05-06 16:47 27.92028 120.85928 24 ft 15 kts 206°
2026-05-06 16:47 27.91810 120.85800 23 ft 63 kts 208°
2026-05-06 16:47 27.91268 120.85470 23 ft 113 kts 208°
2026-05-06 16:48 27.90438 120.84970 26 ft 156 kts 208°
2026-05-06 16:48 27.89462 120.84384 469 ft 152 kts 207°
2026-05-06 16:48 27.88513 120.83819 826 ft 157 kts 207°
2026-05-06 16:48 27.87537 120.83230 1228 ft 160 kts 207°
2026-05-06 16:49 27.86511 120.82608 1482 ft 176 kts 207°
2026-05-06 16:49 27.85368 120.81920 1695 ft 196 kts 207°
2026-05-06 16:49 27.84112 120.81161 1888 ft 213 kts 207°
2026-05-06 16:49 27.82757 120.80344 2194 ft 228 kts 207°
2026-05-06 16:50 27.81332 120.79486 2664 ft 234 kts 208°
2026-05-06 16:50 27.79888 120.78613 3238 ft 236 kts 208°
2026-05-06 16:50 27.78432 120.77737 3812 ft 238 kts 208°
2026-05-06 16:50 27.76862 120.77113 4327 ft 242 kts 188°
2026-05-06 16:51 27.75211 120.77363 4813 ft 249 kts 157°
2026-05-06 16:51 27.73878 120.78612 5275 ft 256 kts 124°
2026-05-06 16:51 27.73336 120.80528 5701 ft 263 kts 90°
2026-05-06 16:51 27.73825 120.82508 6145 ft 266 kts 54°
2026-05-06 16:52 27.75193 120.83851 6634 ft 262 kts 20°
2026-05-06 16:52 27.76942 120.84326 7194 ft 259 kts
2026-05-06 16:52 27.78743 120.84560 7750 ft 261 kts
2026-05-06 16:52 27.80559 120.84783 8337 ft 263 kts
2026-05-06 16:53 27.82389 120.85017 8885 ft 266 kts
2026-05-06 16:53 27.84238 120.85263 9439 ft 268 kts
2026-05-06 16:53 27.86102 120.85516 9975 ft 271 kts
2026-05-06 16:53 27.87982 120.85777 10522 ft 273 kts
2026-05-06 16:54 27.89876 120.86040 11070 ft 275 kts
2026-05-06 16:54 27.91780 120.86303 11608 ft 277 kts
2026-05-06 16:54 27.93672 120.86297 12097 ft 276 kts 348°